User: anonymous   Login
Location: ?????????
(55.6553°N, 38.9075°E)
Time: 14:12:17
(UTC+00:00)
Language:

COSMOS 2455 - Orbit

View from above orbital plane
View from above orbital plane
View from above satellite
View from above satellite

Ground track
Ground track

The orbit data is extracted from the following two-line orbital elements,

1 36095U 09063A   21020.15930070 -.00000073  00000-0  16496-5 0  9993
2 36095  67.1491  12.3617 0006444 244.4610 115.5808 13.96774806569618
Epoch (UTC): 20 January 2021 03:49:23
Eccentricity: 0.0006444
inclination: 67.1491°
perigee height: 900 km
apogee height: 909 km
right ascension of ascending node: 12.3617°
argument of perigee: 244.4610°
revolutions per day: 13.96774806
mean anomaly at epoch: 115.5808°
orbit number at epoch: 56961

The dashed part of the orbit path shows where the satellite is in the earth's shadow,  

DLR